CAPE
28 15 15 20 24 7 7 4 0 0 1 3 0 0 0 0 0 0 0 0 0 0 0 0 0 19 1138 2302 2637 2373 2086 2254 2118 1698 1385 1258 1056 965 873 724 993 854 714 539
7 13 12 17 16 22 26 18 6 19 4 12 3 0 0 0 0 0 0 0 0 0 0 0 0 679 2107 2609 2418 2219 2214 2116 1713 1546 1280 1057 934 937 836 843 886 778 639 739
2 0 14 12 19 22 29 22 29 19 31 8 12 6 0 0 0 0 0 0 0 0 0 0 13 1590 2531 2481 2660 2642 2267 1870 1730 1687 1578 1430 1411 1129 1049 1121 1224 1173 1106 1110
7 1 17 23 10 18 19 22 22 26 20 16 9 0 0 0 0 0 0 0 0 0 0 0 401 2607 2730 2711 2913 2773 2598 2274 1998 1660 1315 1063 990 1193 1385 982 711 619 617 214
0 17 9 6 13 9 12 17 16 22 18 39 32 0 0 0 0 0 0 0 0 0 0 0 706 2489 2894 2898 2840 2724 1938 1721 1701 1564 1505 1339 1227 724 636 692 667 452 151 94
2 16 16 8 11 9 16 17 30 65 35 12 30 11 0 0 0 0 0 0 0 0 0 0 578 2282 2558 2750 2276 2250 2174 2024 1886 1609 1824 1038 620 612 767 863 762 694 482 330
24 18 5 1 13 7 14 14 22 23 32 0 8 9 0 0 0 0 0 0 0 0 0 0 435 1957 1613 1396 1865 1781 1958 1803 1693 1664 1547 1010 1027 1142 979 603 418 267 255 153
4 8 11 15 9 10 7 9 12 9 17 29 6 22 0 0 0 0 0 0 0 0 0 0 411 1091 1878 1895 2129 1827 1607 1613 1749 1996 1341 1337 1121 706 414 269 220 211 10 7
12 0 1 2 21 17 11 12 23 7 1 6 28 3 3 0 0 0 0 0 0 0 0 0 518 1194 1659 2175 2268 1872 1479 1652 1819 1850 1628 1480 1006 566 333 348 90 1 2 0
1 2 2 15 24 13 5 3 6 11 7 8 8 0 0 0 0 0 0 0 0 0 0 0 321 1501 2049 2070 1963 1453 1388 1648 1671 1632 1413 998 741 852 537 13 0 0 0 0
1 0 0 16 2 5 6 10 11 17 12 26 17 8 0 0 0 0 0 0 0 0 0 0 98 1576 1940 2020 1438 1399 1565 1697 1694 1359 1100 733 574 93 2 1 0 0 0 0
4 0 0 5 13 8 9 6 6 22 9 2 2 0 201 0 0 0 0 0 0 0 0 0 318 1386 1701 947 753 881 871 716 571 412 198 75 3 2 2 0 0 0 0 0
0 0 1 10 3 10 6 2 4 15 12 62 15 18 217 7 0 0 0 0 0 0 0 0 525 1170 735 490 421 422 334 140 27 3 13 3 1 1 1 0 0 0 0 0
8 0 1 3 0 0 0 2 9 9 24 36 8 1 54 9 11 0 126 0 0 0 2 789 815 348 185 111 101 26 4 4 3 1 1 0 1 1 0 0 0 0 0 0
0 0 7 4 3 3 10 5 0 5 4 15 13 7 0 0 0 303 544 172 0 108 645 362 55 5 3 2 4 3 2 1 0 0 0 0 0 0 0 0 0 0 0 0
0 0 1 0 5 5 0 6 10 1 19 6 34 10 0 0 1 315 505 426 584 473 143 3 4 3 3 2 3 2 1 0 0 0 0 0 0 0 0 0 0 0 0 0
1 0 0 8 0 0 0 0 4 28 24 37 9 7 0 1 248 752 810 767 599 184 3 4 3 4 3 3 2 1 0 0 0 0 0 0 0 0 0 0 0 0 0 1
0 0 2 2 0 1 0 61 23 24 18 2 33 2 0 4 4 582 893 334 67 2 3 5 5 5 3 2 1 0 0 0 0 0 0 0 0 0 0 0 0 1 2 2
5 0 0 0 7 0 1 2 18 21 13 8 17 36 11 1 1 2 3 2 3 4 4 4 3 3 1 0 0 0 0 0 0 0 0 0 0 0 0 0 0 0 0 0
1 1 0 0 5 3 2 2 0 13 46 52 10 5 3 3 6 5 4 2 4 4 3 3 3 2 2 0 0 0 0 0 0 0 0 0 0 0 0 0 0 0 0 0
3 2 3 1 0 4 5 3 35 110 5 47 41 40 19 0 3 2 2 4 3 3 3 2 2 3 1 0 0 0 0 0 0 0 0 0 0 0 0 0 0 0 0 0
0 1 4 2 1 1 0 0 1 2 132 75 2 5 1 3 2 2 3 3 3 3 3 2 2 2 0 0 0 0 0 0 0 0 0 0 0 0 0 0 0 0 0 0
0 0 0 0 0 1 0 2 2 3 34 3 3 4 3 4 3 2 2 3 3 3 2 1 0 0 0 0 0 0 0 0 0 0 0 0 0 0 0 0 0 0 0 0
1 0 0 1 0 0 3 2 2 2 2 4 4 3 2 3 3 3 2 3 3 2 1 0 0 0 0 0 0 0 0 0 0 0 0 0 0 0 0 0 0 0 0 0
0 0 0 0 0 1 0 4 3 1 3 1 2 2 2 0 3 3 3 3 2 0 0 0 0 0 0 0 0 0 0 0 0 0 0 0 0 0 0 0 0 0 0 0
0 0 0 1 1 0 2 2 2 1 3 2 0 2 1 2 3 4 4 2 0 0 0 0 0 0 0 0 0 0 0 0 0 0 0 0 0 0 0 0 0 0 0 0
CIN
-3 -4 -4 -3 -3 -5 -4 -3 -4 0 -5 -5 0 0 0 0 0 0 0 0 0 0 0 0 0 -245 -150 -60 -58 -109 -118 -99 -106 -135 -136 -115 -87 -58 -47 -54 -48 -58 -60 -94
-8 -4 -5 -6 -5 -3 -4 -5 -6 -6 -9 -5 -5 -2 0 0 0 0 0 0 0 0 0 0 0 -142 -45 -53 -122 -146 -109 -134 -172 -142 -137 -115 -76 -66 -45 -57 -70 -77 -81 -46
-6 0 -9 -5 -2 -3 -2 -4 -5 -10 -7 -10 -10 -7 0 0 0 0 0 0 0 0 0 0 -93 -30 -27 -70 -127 -133 -135 -214 -179 -154 -143 -102 -76 -53 -33 -29 -35 -39 -27 -20
-2 -2 -3 -2 -3 -2 -5 -13 -6 -5 -6 -5 -5 -1 0 0 0 0 0 0 0 0 0 0 -131 -3 -16 -51 -81 -89 -86 -114 -128 -178 -181 -149 -94 -42 -38 -102 -151 -132 -103 -172
0 -1 -3 -1 -4 -6 -3 -8 -6 -7 -11 -4 -8 -3 0 0 0 0 0 0 0 0 0 0 -88 -11 -10 -20 -41 -62 -134 -169 -152 -164 -143 -161 -119 -179 -184 -143 -151 -167 -229 -251
-3 -4 -2 -3 -5 -3 -5 -3 -4 -6 -11 -10 -6 -8 0 0 0 0 0 0 0 0 0 0 -102 -9 -5 -12 -65 -78 -105 -110 -115 -172 -121 -214 -204 -194 -157 -140 -136 -119 -160 -161
-3 -2 -3 -1 -1 -5 -2 -3 -2 -1 -2 -8 -8 -9 0 0 0 0 0 0 0 0 0 0 -113 -8 -37 -87 -81 -154 -145 -184 -180 -142 -87 -135 -129 -126 -142 -164 -136 -173 -162 -195
-1 -3 -1 -2 -1 -7 -4 -5 -5 -3 -7 -6 -12 -11 0 0 0 0 0 0 0 0 0 0 -107 -86 -35 -59 -49 -187 -195 -166 -114 -50 -98 -88 -146 -201 -170 -154 -178 -170 -34 0
-2 0 -1 -3 -7 -11 -2 -3 -4 -16 -25 -19 -13 -8 -2 0 0 0 0 0 0 0 0 0 -104 -72 -50 -32 -44 -132 -206 -129 -75 -58 -89 -111 -163 -145 -148 -170 -216 0 0 0
0 -1 -2 -3 -5 -5 -2 -2 -3 -2 -2 -6 -5 0 0 0 0 0 0 0 0 0 0 0 -88 -50 -37 -85 -86 -193 -182 -110 -111 -99 -132 -176 -153 -90 -133 -57 0 -1 0 0
0 0 -1 -1 -1 -3 0 -1 -3 -3 -5 -4 -21 -6 0 0 0 0 0 0 0 0 0 0 -85 -21 -47 -52 -175 -170 -104 -105 -100 -149 -153 -198 -176 -289 -1 -1 0 0 0 0
-1 0 0 -2 -4 -5 -2 -4 -5 -2 -3 -18 -7 -11 -8 0 0 0 0 0 0 0 0 0 -71 -56 -31 -205 -244 -231 -242 -280 -294 -321 -364 -379 -22 0 0 0 0 0 0 0
0 0 0 -1 -5 -1 0 -3 -2 -4 -6 -3 -6 -4 -32 -7 0 0 0 0 0 0 0 0 -42 -43 -240 -318 -333 -330 -373 -438 -408 -26 -316 0 0 0 0 0 0 0 0 0
0 0 0 -1 -2 0 0 0 -1 -2 -19 -6 -19 -3 -7 -60 -47 0 -7 0 0 0 -6 -26 -85 -306 -432 -500 -514 -563 0 0 0 0 0 0 -1 0 0 0 0 0 0 0
0 0 -1 -1 -3 -3 0 -1 0 -1 -22 -4 -14 -14 0 0 0 -37 -1 -31 0 -4 -32 -180 -372 -125 0 0 0 0 0 0 0 0 0 0 0 0 0 0 0 0 0 0
0 0 0 0 0 0 0 0 0 -2 -1 -5 -4 -4 0 0 -2 -13 -2 -16 -3 -50 -206 0 0 0 0 0 0 0 0 0 0 0 0 0 0 0 0 0 0 0 0 0
0 0 0 0 0 0 0 -1 -2 -2 -18 -6 -3 -8 0 0 -47 -1 -1 -1 -40 -171 0 0 0 0 0 0 0 0 0 0 0 0 0 0 0 0 0 0 0 0 -1 -1
0 0 0 0 0 -1 0 -4 -10 -2 -3 -2 -4 0 0 0 0 -37 -7 -109 -214 0 0 0 0 0 0 0 0 0 0 0 0 0 0 0 0 0 0 0 0 -1 -1 -1
0 0 0 0 0 0 0 -3 -44 -2 -1 -3 -5 -1 -4 0 0 0 0 0 0 0 0 0 0 0 0 0 0 0 0 0 0 0 0 0 0 0 0 0 0 0 0 0
0 0 0 0 -19 0 0 0 0 -19 -3 -3 -1 -10 -3 0 -89 0 0 0 0 0 0 0 0 0 0 0 0 0 0 0 0 0 0 0 0 0 0 0 0 0 0 0
0 0 0 0 0 -2 0 0 -25 -13 -24 -1 -29 -62 -1 0 0 0 0 0 0 0 0 0 0 0 0 0 0 0 0 0 0 0 0 0 0 0 0 0 0 0 0 0
0 0 0 0 0 -4 0 0 0 0 -10 -13 -5 0 0 0 0 0 0 0 0 0 0 0 0 0 0 0 0 0 0 0 0 0 0 0 0 0 0 0 0 0 0 0
0 0 0 0 0 0 0 0 0 0 -10 -1 0 0 0 0 0 0 0 0 0 0 0 0 0 0 0 0 0 0 0 0 0 0 0 0 0 0 0 0 0 0 0 0
0 0 0 0 0 0 0 0 0 0 0 0 0 0 0 0 0 0 0 0 0 0 0 0 0 0 0 0 0 0 0 0 0 0 0 0 0 0 0 0 0 0 0 0
0 0 0 0 0 0 0 0 0 0 0 0 0 0 0 0 0 0 0 0 0 0 0 0 0 0 0 0 0 0 0 0 0 0 0 0 0 0 0 0 0 0 0 0
0 0 0 0 0 0 0 0 0 0 0 0 0 0 0 0 0 0 0 0 0 0 0 0 0 0 0 0 0 0 0 0 0 0 0 0 0 0 0 0 0 0 0 0
Wind_Speed
3 3 10 8 13 16 38 43 45 42 40 47 50 51 52 50 38 39 46 39 42 43 41 38 36 32 29 29 25 22 20 16 13 10 8 9 9 9 10 11 12 11 13 13
5 10 16 16 16 18 20 42 45 41 42 45 49 46 46 51 51 48 43 43 42 37 38 33 33 30 30 28 25 23 20 17 14 10 10 10 8 9 10 11 11 12 13 15
10 20 17 7 9 15 13 14 39 41 38 48 50 55 50 51 49 50 49 44 41 40 38 33 30 27 29 29 27 25 20 17 14 8 5 7 7 8 10 10 11 12 14 15
6 18 7 5 9 11 13 7 9 35 40 51 46 64 54 53 55 53 53 47 44 39 37 32 29 25 27 29 25 23 19 16 12 9 5 7 11 9 8 9 11 14 14 13
6 2 2 6 12 3 8 3 8 27 39 40 50 55 52 45 47 52 51 50 43 38 33 31 28 26 28 29 27 22 18 14 12 9 4 5 9 5 6 7 11 13 13 13
15 14 12 11 1 1 1 1 2 19 35 46 47 51 53 49 45 47 50 47 41 36 31 29 26 25 25 27 24 22 18 13 11 7 4 3 4 1 3 8 11 12 13 12
6 5 4 3 3 5 5 5 15 24 31 42 40 55 53 44 43 44 45 42 42 36 31 28 26 27 24 24 24 23 19 13 9 7 7 5 4 2 4 7 9 11 11 14
7 9 9 7 7 5 6 8 3 23 31 36 33 46 54 50 39 33 30 34 40 39 32 29 27 26 25 22 21 20 17 14 11 9 7 6 4 3 5 9 9 10 12 13
9 6 7 6 4 4 3 10 13 13 32 33 33 42 40 49 47 45 40 36 38 39 34 28 25 25 26 24 20 19 17 15 13 10 8 5 3 4 7 8 10 10 11 12
10 4 3 8 5 4 9 6 8 6 24 29 34 44 51 46 50 45 43 40 40 38 35 27 24 22 22 22 20 18 17 16 13 10 7 4 5 5 7 8 9 10 12 14
12 9 11 7 4 5 5 11 12 8 15 23 27 33 40 41 47 46 42 36 37 39 35 29 23 20 19 19 18 17 17 15 12 8 6 4 3 5 7 8 10 12 13 14
11 14 11 5 4 2 8 12 17 10 20 30 30 24 18 45 32 45 42 37 33 38 36 29 25 23 22 19 19 17 14 12 9 7 5 5 4 6 7 9 11 11 13 14
14 12 15 12 8 7 6 6 16 22 27 27 31 24 17 31 32 35 38 35 31 35 36 30 27 26 23 21 18 16 12 10 8 8 7 6 4 5 7 8 10 12 12 14
4 8 2 4 3 10 7 5 15 19 32 31 33 27 23 25 31 32 32 33 32 34 33 30 28 26 22 20 17 15 12 9 9 8 7 6 5 6 7 9 10 11 13 14
14 10 1 9 14 11 7 8 4 19 22 32 30 24 25 30 30 29 29 31 30 32 31 31 29 26 22 19 16 14 12 10 10 8 7 6 9 10 9 10 10 12 14 15
13 11 12 0 5 7 7 11 12 16 32 34 32 25 23 32 32 36 32 31 29 30 29 27 26 24 22 19 17 14 12 10 11 9 9 12 12 11 10 11 12 13 14 15
16 14 14 16 13 13 13 14 17 25 32 33 27 21 23 26 26 32 30 30 29 29 27 26 24 22 20 18 17 15 13 13 11 11 11 9 10 10 11 12 12 13 14 15
11 13 14 13 13 16 14 13 23 25 25 28 23 16 23 23 19 19 24 25 26 26 26 23 22 21 20 19 18 16 13 13 12 11 10 9 9 10 10 11 12 13 15 16
11 15 15 15 13 21 16 9 14 21 22 23 20 15 22 23 19 17 20 20 22 23 22 21 22 23 22 19 17 16 14 13 12 11 10 10 10 10 10 12 13 14 15 16
11 15 18 13 5 11 8 11 15 17 21 20 15 22 25 24 30 26 22 20 20 21 21 22 23 22 20 17 16 16 14 12 11 11 10 9 10 11 12 12 13 15 16 17
12 12 15 15 17 14 8 12 15 17 17 20 17 22 19 22 25 24 22 20 21 22 22 22 21 20 18 16 15 15 13 12 11 11 10 10 11 12 12 13 14 15 16 17
19 13 16 18 20 16 11 11 8 14 13 17 14 14 13 18 23 22 22 23 23 23 23 22 21 19 16 14 15 14 13 11 11 12 12 12 12 12 13 14 15 16 17 18
15 16 14 17 17 11 12 14 14 13 12 15 16 14 9 21 23 23 23 23 23 24 24 22 20 19 14 12 13 14 12 12 12 12 12 13 13 14 14 15 15 17 18 18
6 8 17 16 13 9 7 8 7 9 12 13 14 12 16 21 22 23 23 23 24 25 24 21 19 18 16 13 12 13 12 12 13 13 13 13 13 14 15 16 17 18 19 20
11 7 11 17 11 12 6 5 4 5 8 11 13 11 15 19 23 25 25 24 25 25 22 19 17 16 15 13 12 11 12 13 13 14 14 14 14 14 16 18 19 20 21 22
5 10 10 12 9 16 10 8 5 7 11 9 10 10 13 20 20 23 25 25 25 23 20 18 16 15 13 12 12 11 11 12 14 14 13 13 14 15 17 19 21 24 25 26
Wind_Direction
310 302 214 220 215 224 283 275 269 267 259 251 249 249 244 242 246 244 242 244 243 242 241 241 242 241 234 231 224 218 218 219 223 231 243 266 282 292 304 311 318 328 330 329
295 236 228 228 227 228 231 276 268 268 261 249 247 249 245 241 243 243 243 242 242 241 237 239 239 234 229 224 218 214 215 216 217 233 251 267 285 299 306 311 324 331 331 330
238 231 243 244 228 230 238 245 274 265 265 252 250 247 245 240 243 242 240 241 241 239 235 236 237 228 224 220 214 211 208 206 210 215 235 266 290 302 306 314 331 340 335 340
264 282 274 247 243 229 236 261 278 271 261 248 242 240 242 240 239 238 235 237 237 236 235 234 232 224 220 219 211 206 208 207 200 199 215 258 280 295 317 330 333 331 338 343
202 126 347 247 226 252 227 264 309 281 261 254 244 239 239 238 234 231 230 231 233 232 231 229 226 223 222 217 207 203 198 198 204 221 201 275 278 303 329 340 340 342 346 352
223 216 220 226 264 17 92 300 299 288 261 249 243 237 233 232 232 228 226 228 229 228 226 225 225 217 215 207 198 197 200 202 210 223 233 201 226 269 338 335 335 338 346 5
74 200 162 50 140 52 125 133 337 281 257 249 245 236 230 230 230 227 226 227 225 225 222 222 219 212 204 197 203 210 216 214 216 200 198 180 155 97 357 344 345 347 357 11
57 58 75 68 162 122 159 163 37 291 263 255 249 237 228 229 225 229 230 230 222 221 219 220 216 212 204 199 203 208 208 205 199 187 175 155 122 40 5 359 8 12 9 22
42 58 57 47 72 64 77 183 191 332 273 264 252 239 232 228 229 228 228 229 221 217 216 215 212 213 207 204 202 199 200 194 189 174 154 144 96 60 29 25 18 23 20 27
31 355 40 38 58 159 190 121 146 147 285 261 249 236 226 225 221 222 223 223 220 215 212 209 207 205 201 204 200 194 194 185 170 164 154 130 98 55 46 36 40 34 49 59
8 4 3 22 49 195 130 179 165 147 184 266 250 242 230 223 220 218 217 220 218 213 207 204 199 192 187 183 181 174 167 167 169 158 144 112 77 65 63 58 51 53 58 55
1 356 348 241 218 115 177 180 182 163 193 238 250 251 264 217 219 213 215 218 218 211 205 199 194 186 180 178 175 176 170 165 162 149 129 109 91 83 67 64 60 61 51 43
7 7 4 15 44 64 82 151 187 198 226 245 239 237 265 216 215 213 213 215 215 209 203 198 191 188 186 182 181 183 173 166 150 135 125 107 83 74 68 58 59 56 46 34
341 358 266 222 343 34 40 60 183 185 232 233 229 241 245 221 219 214 215 215 212 204 197 192 192 191 187 186 183 181 176 152 135 126 110 94 77 71 67 62 53 41 34 29
29 8 286 223 224 214 203 193 38 183 192 225 231 245 241 227 227 222 214 209 204 194 193 194 193 191 186 183 180 172 166 146 130 121 102 85 84 80 67 55 44 36 33 30
34 39 23 116 196 191 188 184 174 176 200 212 222 239 252 232 231 215 207 201 194 193 192 191 189 185 184 178 174 167 155 145 120 114 104 97 88 76 61 49 45 40 34 30
40 47 44 42 42 90 107 155 158 188 203 209 215 247 233 222 210 202 198 195 192 190 188 183 181 179 175 170 161 152 143 127 122 113 105 93 81 64 58 53 45 37 30 34
60 62 66 75 113 73 65 201 168 194 204 213 208 229 214 203 194 187 186 186 185 183 179 177 173 167 162 154 146 140 131 124 119 112 99 88 75 62 54 47 39 36 32 28
62 59 77 86 149 87 8 291 214 195 197 212 213 217 198 187 175 180 180 177 177 174 170 165 157 150 146 145 139 129 124 120 113 103 94 83 69 61 52 44 36 33 31 30
97 94 77 125 170 330 277 246 239 230 192 199 216 194 190 196 183 185 184 168 166 163 161 156 152 148 143 141 130 125 122 116 108 99 89 75 64 56 52 44 38 36 34 27
89 119 119 123 144 168 255 259 215 215 206 195 198 192 189 190 187 181 178 165 159 158 156 154 150 145 140 134 128 121 116 109 99 90 82 71 60 54 49 45 40 35 29 25
74 117 130 110 130 157 283 233 252 217 226 204 189 186 181 171 169 170 169 161 154 154 155 152 145 139 134 129 123 118 111 103 95 88 80 69 59 51 47 41 36 29 25 22
93 96 138 131 125 212 232 240 242 228 206 196 188 181 159 167 167 166 162 158 155 153 154 151 143 132 131 128 118 112 106 101 93 85 75 66 57 50 44 36 29 24 23 22
119 153 116 136 158 190 241 262 240 213 197 193 186 173 171 164 165 162 161 158 152 151 147 145 136 126 120 115 111 106 105 97 89 82 72 63 55 46 35 28 25 26 25 27
90 160 170 122 195 196 183 267 246 196 183 178 179 169 164 165 165 163 160 156 151 148 145 145 138 127 120 115 109 105 99 93 86 78 71 62 51 43 36 27 25 28 20 17
147 180 188 162 210 164 215 208 239 194 186 171 151 168 169 155 156 159 159 155 151 146 141 138 135 125 119 112 106 99 92 86 82 74 63 58 54 48 49 47 43 34 34 31